"read_dt","SO2 (ppb)","flags","PMT voltage (V)","lamp voltage (V)","lamp intensity (Hz)","internal temp (C)","react chamber temp (C)","sample flow (l/min)","pres (mmHg)","SO2 bkg (ppb)","SO2 coefficient"
2014-03-10 00:00:00,5262E-2,5C000490,-0724,1342,7153,023.3,045.2,0.137,767.2,01.15,0.508
2014-03-10 00:01:00,5288E-2,5C000490,-0724,1343,7176,023.3,045.2,0.137,767.2,01.15,0.508
2014-03-10 00:02:00,5328E-2,5C000490,-0724,1344,7166,023.3,045.1,0.137,767.0,01.15,0.508
2014-03-10 00:03:00,5268E-2,5C000490,-0724,1343,7119,023.3,045.1,0.137,767.0,01.15,0.508
2014-03-10 00:04:00,5276E-2,5C000490,-0724,1343,7003,023.3,045.2,0.137,767.1,01.15,0.508
2014-03-10 00:05:00,5247E-2,5C000490,-0724,1344,7131,023.3,045.1,0.137,767.1,01.15,0.508
2014-03-10 00:06:00,5272E-2,5C000490,-0724,1345,7172,023.3,045.1,0.137,767.1,01.15,0.508
2014-03-10 00:07:00,5311E-2,5C000490,-0724,1346,7199,023.3,045.1,0.137,767.1,01.15,0.508
2014-03-10 00:08:00,5324E-2,5C000490,-0724,1347,7138,023.3,045.2,0.137,767.2,01.15,0.508
2014-03-10 00:09:00,5261E-2,5C000490,-0724,1348,7109,023.3,045.2,0.137,767.0,01.15,0.508
2014-03-10 00:10:00,5542E-2,5C000490,-0724,1350,7081,023.3,045.2,0.137,767.0,01.15,0.508
2014-03-10 00:11:00,5551E-2,5C000490,-0724,1352,7060,023.3,045.1,0.137,767.0,01.15,0.508
2014-03-10 00:12:00,5508E-2,5C000490,-0724,1354,6924,023.4,045.1,0.137,767.0,01.15,0.508
2014-03-10 00:13:00,5554E-2,5C000490,-0724,1355,6953,023.3,045.1,0.137,767.1,01.15,0.508
2014-03-10 00:14:00,5512E-2,5C000490,-0724,1357,6922,023.3,045.2,0.137,767.1,01.15,0.508
2014-03-10 00:15:00,5646E-2,5C000490,-0724,1341,7216,023.3,045.2,0.137,767.1,01.15,0.508
2014-03-10 00:16:00,5654E-2,5C000490,-0724,1335,7247,023.3,045.2,0.137,767.0,01.15,0.508
2014-03-10 00:17:00,5709E-2,5C000490,-0724,1335,7260,023.4,045.2,0.137,767.0,01.15,0.508
2014-03-10 00:18:00,5715E-2,5C000490,-0724,1335,7219,023.4,045.2,0.137,767.0,01.15,0.508
2014-03-10 00:19:00,5640E-2,5C000490,-0724,1337,7230,023.4,045.2,0.137,767.0,01.15,0.508
2014-03-10 00:20:00,5698E-2,5C000490,-0724,1337,7217,023.4,045.1,0.137,767.0,01.15,0.508
2014-03-10 00:21:00,5822E-2,5C000490,-0724,1337,7222,023.4,045.2,0.136,767.0,01.15,0.508
2014-03-10 00:22:00,5744E-2,5C000490,-0724,1337,7243,023.4,045.2,0.137,767.0,01.15,0.508
2014-03-10 00:23:00,5737E-2,5C000490,-0724,1338,7147,023.4,045.2,0.137,767.0,01.15,0.508
2014-03-10 00:24:00,5769E-2,5C000490,-0724,1337,7242,023.4,045.2,0.136,767.0,01.15,0.508
2014-03-10 00:25:00,5753E-2,5C000490,-0724,1340,7137,023.4,045.2,0.137,767.0,01.15,0.508
2014-03-10 00:26:00,5749E-2,5C000490,-0724,1341,7189,023.4,045.1,0.137,767.0,01.15,0.508
2014-03-10 00:27:00,5755E-2,5C000490,-0724,1344,7243,023.4,045.2,0.137,766.9,01.15,0.508
2014-03-10 00:28:00,5782E-2,5C000490,-0724,1346,7129,023.4,045.2,0.136,767.0,01.15,0.508
2014-03-10 00:29:00,5769E-2,5C000490,-0724,1347,7198,023.4,045.2,0.136,767.0,01.15,0.508
2014-03-10 00:30:00,5801E-2,5C000490,-0724,1347,7114,023.5,045.1,0.136,767.0,01.15,0.508
2014-03-10 00:31:00,5855E-2,5C000490,-0724,1349,7082,023.5,045.2,0.136,767.0,01.15,0.508
2014-03-10 00:32:00,5815E-2,5C000490,-0724,1350,6996,023.5,045.2,0.136,767.0,01.15,0.508
2014-03-10 00:33:00,5784E-2,5C000490,-0724,1351,7087,023.5,045.2,0.136,767.0,01.15,0.508
2014-03-10 00:34:00,5834E-2,5C000490,-0724,1353,6962,023.5,045.2,0.136,766.9,01.15,0.508
2014-03-10 00:35:00,5781E-2,5C000490,-0724,1354,6992,023.5,045.2,0.136,766.9,01.15,0.508
2014-03-10 00:36:00,5810E-2,5C000490,-0724,1354,6997,023.5,045.2,0.136,767.0,01.15,0.508
2014-03-10 00:37:00,5779E-2,5C000490,-0724,1355,7036,023.5,045.1,0.136,767.0,01.15,0.508
2014-03-10 00:38:00,5755E-2,5C000490,-0724,1356,6929,023.5,045.1,0.136,767.0,01.15,0.508
2014-03-10 00:39:00,5742E-2,5C000490,-0724,1357,7037,023.5,045.1,0.136,767.0,01.15,0.508
2014-03-10 00:40:00,5765E-2,5C000490,-0724,1357,6997,023.5,045.2,0.136,767.1,01.15,0.508
2014-03-10 00:41:00,5795E-2,5C000490,-0724,1356,7033,023.5,045.2,0.136,767.1,01.15,0.508
2014-03-10 00:42:00,5769E-2,5C000490,-0724,1356,7057,023.5,045.2,0.136,767.0,01.15,0.508
2014-03-10 00:43:00,5848E-2,5C000490,-0724,1356,7013,023.5,045.2,0.136,767.1,01.15,0.508
2014-03-10 00:44:00,5853E-2,5C000490,-0724,1357,6964,023.6,045.2,0.136,767.1,01.15,0.508
2014-03-10 00:45:00,5787E-2,5C000490,-0724,1358,7012,023.6,045.2,0.136,767.1,01.15,0.508
2014-03-10 00:46:00,5787E-2,5C000490,-0724,1360,6964,023.6,045.2,0.136,767.1,01.15,0.508
2014-03-10 00:47:00,5776E-2,5C000490,-0724,1361,6913,023.6,045.2,0.136,767.2,01.15,0.508
2014-03-10 00:48:00,5761E-2,5C000490,-0724,1362,6878,023.6,045.2,0.136,767.1,01.15,0.508
2014-03-10 00:49:00,5832E-2,5C000490,-0724,1363,6881,023.6,045.1,0.136,767.1,01.15,0.508
2014-03-10 00:50:00,5755E-2,5C000490,-0724,1363,6866,023.6,045.2,0.136,767.1,01.15,0.508
2014-03-10 00:51:00,5762E-2,5C000490,-0724,1364,6820,023.6,045.2,0.136,767.1,01.15,0.508
2014-03-10 00:52:00,5854E-2,5C000490,-0724,1365,6873,023.6,045.2,0.136,767.1,01.15,0.508
2014-03-10 00:53:00,5828E-2,5C000490,-0724,1365,6959,023.6,045.2,0.136,767.1,01.15,0.508
2014-03-10 00:54:00,5885E-2,5C000490,-0724,1366,6773,023.6,045.2,0.136,767.0,01.15,0.508
2014-03-10 00:55:00,5742E-2,5C000490,-0724,1365,6875,023.6,045.2,0.136,767.1,01.15,0.508
2014-03-10 00:56:00,5745E-2,5C000490,-0724,1365,6859,023.7,045.2,0.136,767.2,01.15,0.508
2014-03-10 00:57:00,5668E-2,5C000490,-0724,1366,6763,023.6,045.2,0.136,767.1,01.15,0.508
2014-03-10 00:58:00,5670E-2,5C000490,-0724,1367,6926,023.7,045.1,0.136,767.1,01.15,0.508
2014-03-10 00:59:00,5729E-2,5C000490,-0724,1367,6789,023.7,045.2,0.136,767.1,01.15,0.508
2014-03-10 01:00:00,5674E-2,5C000490,-0724,1367,6861,023.7,045.2,0.135,767.1,01.15,0.508
2014-03-10 01:01:00,5733E-2,5C000490,-0724,1367,6806,023.7,045.2,0.136,767.1,01.15,0.508
2014-03-10 01:02:00,5662E-2,5C000490,-0724,1368,6830,023.7,045.2,0.135,767.1,01.15,0.508
2014-03-10 01:03:00,5764E-2,5C000490,-0724,1367,6835,023.7,045.2,0.135,767.1,01.15,0.508
2014-03-10 01:04:00,5754E-2,5C000490,-0724,1368,6752,023.7,045.2,0.135,767.1,01.15,0.508
2014-03-10 01:05:00,5690E-2,5C000490,-0724,1368,6831,023.7,045.2,0.135,767.0,01.15,0.508
2014-03-10 01:06:00,5741E-2,5C000490,-0724,1368,6868,023.7,045.2,0.135,767.0,01.15,0.508
2014-03-10 01:07:00,5723E-2,5C000490,-0724,1368,6934,023.7,045.2,0.135,767.0,01.15,0.508
2014-03-10 01:08:00,5777E-2,5C000490,-0724,1368,6719,023.8,045.2,0.135,766.9,01.15,0.508
2014-03-10 01:09:00,5780E-2,5C000490,-0724,1369,6865,023.8,045.1,0.135,767.0,01.15,0.508
2014-03-10 01:10:00,5757E-2,5C000490,-0724,1369,6865,023.8,045.2,0.135,767.1,01.15,0.508
2014-03-10 01:11:00,5771E-2,5C000490,-0724,1370,6769,023.8,045.2,0.135,767.0,01.15,0.508
2014-03-10 01:12:00,5776E-2,5C000490,-0724,1370,6821,023.8,045.2,0.135,767.0,01.15,0.508
2014-03-10 01:13:00,5746E-2,5C000490,-0724,1370,6802,023.8,045.2,0.135,767.0,01.15,0.508
2014-03-10 01:14:00,5780E-2,5C000490,-0724,1371,6851,023.8,045.2,0.135,767.0,01.15,0.508
2014-03-10 01:15:00,5757E-2,5C000490,-0724,1371,6786,023.8,045.2,0.135,767.0,01.15,0.508
2014-03-10 01:16:00,5760E-2,5C000490,-0724,1370,6827,023.8,045.2,0.135,767.0,01.15,0.508
2014-03-10 01:17:00,5752E-2,5C000490,-0724,1369,6761,023.9,045.2,0.135,767.0,01.15,0.508
2014-03-10 01:18:00,5756E-2,5C000490,-0724,1370,6792,023.9,045.1,0.135,767.0,01.15,0.508
2014-03-10 01:19:00,5740E-2,5C000490,-0724,1370,6699,023.9,045.2,0.135,767.0,01.15,0.508
2014-03-10 01:20:00,5798E-2,5C000490,-0724,1370,6806,023.9,045.2,0.135,766.9,01.15,0.508
2014-03-10 01:21:00,5803E-2,5C000490,-0724,1370,6801,023.9,045.2,0.135,766.9,01.15,0.508
2014-03-10 01:22:00,5686E-2,5C000490,-0724,1371,6795,023.9,045.2,0.135,766.9,01.15,0.508
2014-03-10 01:23:00,5803E-2,5C000490,-0724,1371,6757,023.9,045.2,0.135,766.8,01.15,0.508
2014-03-10 01:24:00,5769E-2,5C000490,-0724,1371,6750,023.9,045.1,0.135,766.9,01.15,0.508
2014-03-10 01:25:00,5765E-2,5C000490,-0724,1371,6728,023.9,045.2,0.135,767.0,01.15,0.508
2014-03-10 01:26:00,5755E-2,5C000490,-0724,1371,6748,023.9,045.2,0.135,767.0,01.15,0.508
2014-03-10 01:27:00,5772E-2,5C000490,-0724,1372,6765,024.0,045.2,0.134,766.9,01.15,0.508
2014-03-10 01:28:00,5844E-2,5C000490,-0724,1371,6775,024.0,045.2,0.134,766.9,01.15,0.508
2014-03-10 01:29:00,5808E-2,5C000490,-0724,1372,6725,024.0,045.2,0.134,767.0,01.15,0.508
2014-03-10 01:30:00,5802E-2,5C000490,-0724,1372,6702,024.0,045.2,0.134,766.9,01.15,0.508
2014-03-10 01:31:00,5868E-2,5C000490,-0724,1372,6724,024.0,045.2,0.134,767.0,01.15,0.508
2014-03-10 01:32:00,5861E-2,5C000490,-0724,1372,6785,024.0,045.2,0.134,767.0,01.15,0.508
2014-03-10 01:33:00,5873E-2,5C000490,-0724,1372,6760,024.0,045.2,0.134,766.9,01.15,0.508
2014-03-10 01:34:00,5893E-2,5C000490,-0724,1373,6746,024.0,045.2,0.134,766.9,01.15,0.508
2014-03-10 01:35:00,5819E-2,5C000490,-0724,1373,6690,024.0,045.2,0.134,766.8,01.15,0.508
2014-03-10 01:36:00,5829E-2,5C000490,-0724,1373,6668,024.1,045.2,0.134,766.8,01.15,0.508
2014-03-10 01:37:00,5886E-2,5C000490,-0724,1373,6578,024.1,045.2,0.134,766.8,01.15,0.508
2014-03-10 01:38:00,5905E-2,5C000490,-0724,1373,6689,024.1,045.2,0.134,766.8,01.15,0.508
2014-03-10 01:39:00,5897E-2,5C000490,-0724,1374,6578,024.1,045.2,0.134,766.8,01.15,0.508
2014-03-10 01:40:00,5908E-2,5C000490,-0724,1374,6627,024.1,045.2,0.134,766.9,01.15,0.508
2014-03-10 01:41:00,5872E-2,5C000490,-0724,1374,6625,024.1,045.2,0.134,766.9,01.15,0.508
2014-03-10 01:42:00,5843E-2,5C000490,-0724,1374,6618,024.1,045.2,0.134,766.9,01.15,0.508
2014-03-10 01:43:00,5884E-2,5C000490,-0724,1374,6628,024.2,045.2,0.134,766.8,01.15,0.508
2014-03-10 01:44:00,5826E-2,5C000490,-0724,1374,6627,024.1,045.2,0.134,766.8,01.15,0.508
2014-03-10 01:45:00,5912E-2,5C000490,-0724,1374,6624,024.2,045.2,0.134,766.9,01.15,0.508
2014-03-10 01:46:00,5853E-2,5C000490,-0724,1374,6663,024.2,045.2,0.134,766.9,01.15,0.508
2014-03-10 01:47:00,5888E-2,5C000490,-0724,1374,6510,024.2,045.2,0.134,766.8,01.15,0.508
2014-03-10 01:48:00,5867E-2,5C000490,-0724,1374,6465,024.2,045.2,0.134,766.8,01.15,0.508
2014-03-10 01:49:00,5880E-2,5C000490,-0724,1374,6557,024.2,045.2,0.134,766.9,01.15,0.508
2014-03-10 01:50:00,5899E-2,5C000490,-0724,1374,6581,024.3,045.2,0.134,766.8,01.15,0.508
2014-03-10 01:51:00,5871E-2,5C000490,-0724,1374,6569,024.3,045.2,0.133,766.8,01.15,0.508
2014-03-10 01:52:00,5935E-2,5C000490,-0724,1374,6627,024.3,045.2,0.133,766.8,01.15,0.508
2014-03-10 01:53:00,5892E-2,5C000490,-0724,1374,6544,024.3,045.2,0.133,766.8,01.15,0.508
2014-03-10 01:54:00,5885E-2,5C000490,-0724,1374,6618,024.3,045.2,0.133,766.8,01.15,0.508
2014-03-10 01:55:00,5830E-2,5C000490,-0724,1375,6559,024.3,045.2,0.133,766.8,01.15,0.508
2014-03-10 01:56:00,5943E-2,5C000490,-0724,1375,6581,024.4,045.2,0.133,766.8,01.15,0.508
2014-03-10 01:57:00,5888E-2,5C000490,-0724,1375,6472,024.4,045.2,0.133,766.7,01.15,0.508
2014-03-10 01:58:00,5884E-2,5C000490,-0724,1375,6494,024.4,045.2,0.133,766.7,01.15,0.508
2014-03-10 01:59:00,5907E-2,5C000490,-0724,1375,6430,024.4,045.2,0.133,766.8,01.15,0.508
2014-03-10 02:00:00,5842E-2,5C000490,-0724,1375,6557,024.4,045.2,0.133,766.8,01.15,0.508
2014-03-10 02:01:00,5858E-2,5C000490,-0724,1374,6559,024.4,045.2,0.133,766.8,01.15,0.508
2014-03-10 02:02:00,5850E-2,5C000490,-0724,1374,6609,024.4,045.2,0.133,766.8,01.15,0.508
2014-03-10 02:03:00,5784E-2,5C000490,-0724,1374,6589,024.4,045.2,0.133,766.8,01.15,0.508
2014-03-10 02:04:00,5848E-2,5C000490,-0724,1374,6458,024.5,045.2,0.133,766.8,01.15,0.508
2014-03-10 02:05:00,5845E-2,5C000490,-0724,1375,6522,024.5,045.2,0.133,766.8,01.15,0.508
2014-03-10 02:06:00,5889E-2,5C000490,-0724,1375,6552,024.5,045.2,0.133,766.8,01.15,0.508
2014-03-10 02:07:00,5862E-2,5C000490,-0724,1375,6443,024.5,045.2,0.133,766.8,01.15,0.508
2014-03-10 02:08:00,5863E-2,5C000490,-0724,1375,6471,024.5,045.2,0.132,766.8,01.15,0.508
2014-03-10 02:09:00,5773E-2,5C000490,-0724,1375,6545,024.5,045.2,0.132,766.9,01.15,0.508
2014-03-10 02:10:00,5852E-2,5C000490,-0724,1375,6520,024.5,045.2,0.132,766.8,01.15,0.508
2014-03-10 02:11:00,5834E-2,5C000490,-0724,1375,6492,024.5,045.2,0.132,766.8,01.15,0.508
2014-03-10 02:12:00,5775E-2,5C000490,-0724,1375,6520,024.6,045.2,0.132,766.8,01.15,0.508
2014-03-10 02:13:00,5781E-2,5C000490,-0724,1375,6365,024.6,045.2,0.132,766.8,01.15,0.508
2014-03-10 02:14:00,5783E-2,5C000490,-0724,1375,6506,024.6,045.2,0.132,766.7,01.15,0.508
2014-03-10 02:15:00,5813E-2,5C000490,-0724,1375,6557,024.6,045.2,0.132,766.8,01.15,0.508
2014-03-10 02:16:00,5817E-2,5C000490,-0724,1375,6445,024.6,045.2,0.132,766.8,01.15,0.508
2014-03-10 02:17:00,5913E-2,5C000490,-0724,1375,6331,024.6,045.2,0.132,766.8,01.15,0.508
2014-03-10 02:18:00,5934E-2,5C000490,-0724,1375,6460,024.7,045.2,0.132,766.8,01.15,0.508
2014-03-10 02:19:00,5927E-2,5C000490,-0724,1375,6399,024.6,045.2,0.132,766.8,01.15,0.508
2014-03-10 02:20:00,5918E-2,5C000490,-0724,1375,6376,024.7,045.2,0.132,766.8,01.15,0.508
2014-03-10 02:21:00,5939E-2,5C000490,-0724,1375,6304,024.7,045.2,0.132,766.7,01.15,0.508
2014-03-10 02:22:00,5895E-2,5C000490,-0724,1375,6389,024.7,045.2,0.132,766.7,01.15,0.508
2014-03-10 02:23:00,5903E-2,5C000490,-0724,1375,6395,024.7,045.2,0.132,766.7,01.15,0.508
2014-03-10 02:24:00,5923E-2,5C000490,-0724,1375,6309,024.7,045.2,0.132,766.8,01.15,0.508
2014-03-10 02:25:00,5888E-2,5C000490,-0724,1375,6319,024.7,045.2,0.132,766.7,01.15,0.508
2014-03-10 02:26:00,5846E-2,5C000490,-0724,1375,6403,024.7,045.2,0.132,766.7,01.15,0.508
2014-03-10 02:27:00,5876E-2,5C000490,-0724,1375,6344,024.7,045.2,0.131,766.7,01.15,0.508
2014-03-10 02:28:00,5892E-2,5C000490,-0724,1375,6352,024.8,045.2,0.132,766.8,01.15,0.508
2014-03-10 02:29:00,5936E-2,5C000490,-0724,1375,6459,024.8,045.2,0.131,766.8,01.15,0.508
2014-03-10 02:30:00,5932E-2,5C000490,-0724,1375,6309,024.8,045.2,0.131,766.6,01.15,0.508
2014-03-10 02:31:00,5892E-2,5C000490,-0724,1375,6218,024.8,045.2,0.131,766.7,01.15,0.508
2014-03-10 02:32:00,5914E-2,5C000490,-0724,1375,6378,024.8,045.2,0.131,766.8,01.15,0.508
2014-03-10 02:33:00,5856E-2,5C000490,-0724,1375,6312,024.8,045.2,0.131,766.7,01.15,0.508
2014-03-10 02:34:00,5893E-2,5C000490,-0724,1375,6380,024.8,045.2,0.131,766.7,01.15,0.508
2014-03-10 02:35:00,5886E-2,5C000490,-0724,1375,6346,024.8,045.2,0.131,766.8,01.15,0.508
2014-03-10 02:36:00,5887E-2,5C000490,-0724,1375,6302,024.8,045.2,0.131,766.8,01.15,0.508
2014-03-10 02:37:00,5909E-2,5C000490,-0724,1375,6262,024.8,045.2,0.131,766.7,01.15,0.508
2014-03-10 02:38:00,5897E-2,5C000490,-0724,1375,6264,024.8,045.2,0.131,766.7,01.15,0.508
2014-03-10 02:39:00,5881E-2,5C000490,-0724,1375,6277,024.8,045.2,0.131,766.7,01.15,0.508
2014-03-10 02:40:00,5937E-2,5C000490,-0724,1375,6125,024.8,045.2,0.131,766.7,01.15,0.508
2014-03-10 02:41:00,5915E-2,5C000490,-0724,1375,6314,024.9,045.2,0.131,766.6,01.15,0.508
2014-03-10 02:42:00,5936E-2,5C000490,-0724,1375,6211,024.9,045.2,0.131,766.6,01.15,0.508
2014-03-10 02:43:00,5909E-2,5C000490,-0724,1375,6279,024.9,045.2,0.131,766.6,01.15,0.508
2014-03-10 02:44:00,5993E-2,5C000490,-0724,1375,6280,024.9,045.2,0.131,766.6,01.15,0.508
2014-03-10 02:45:00,5929E-2,5C000490,-0724,1375,6169,024.9,045.2,0.131,766.6,01.15,0.508
2014-03-10 02:46:00,6029E-2,5C000490,-0724,1375,6260,024.9,045.2,0.131,766.6,01.15,0.508
2014-03-10 02:47:00,6019E-2,5C000490,-0724,1375,6229,024.9,045.2,0.131,766.6,01.15,0.508
2014-03-10 02:48:00,6018E-2,5C000490,-0724,1375,6266,024.9,045.2,0.131,766.6,01.15,0.508
2014-03-10 02:49:00,5972E-2,5C000490,-0724,1375,6135,024.9,045.2,0.131,766.5,01.15,0.508
2014-03-10 02:50:00,5986E-2,5C000490,-0724,1375,6167,024.9,045.2,0.131,766.5,01.15,0.508
2014-03-10 02:51:00,5991E-2,5C000490,-0724,1375,6200,024.9,045.2,0.131,766.6,01.15,0.508
2014-03-10 02:52:00,5976E-2,5C000490,-0724,1375,6154,024.9,045.2,0.131,766.6,01.15,0.508
2014-03-10 02:53:00,6002E-2,5C000490,-0724,1375,6108,024.9,045.2,0.131,766.5,01.15,0.508
2014-03-10 02:54:00,5977E-2,5C000490,-0724,1375,6070,024.9,045.2,0.131,766.5,01.15,0.508
2014-03-10 02:55:00,5951E-2,5C000490,-0724,1375,6166,024.9,045.2,0.131,766.6,01.15,0.508
2014-03-10 02:56:00,6045E-2,5C000490,-0724,1375,6184,024.9,045.2,0.131,766.5,01.15,0.508
2014-03-10 02:57:00,6018E-2,5C000490,-0724,1375,6133,025.0,045.2,0.130,766.5,01.15,0.508
2014-03-10 02:58:00,5959E-2,5C000490,-0724,1375,6162,025.0,045.2,0.131,766.5,01.15,0.508
2014-03-10 02:59:00,6011E-2,5C000490,-0724,1375,6159,025.0,045.2,0.130,766.5,01.15,0.508
2014-03-10 03:00:00,5976E-2,5C000490,-0724,1375,6047,025.0,045.2,0.130,766.5,01.15,0.508
2014-03-10 03:01:00,5994E-2,5C000490,-0724,1375,6138,025.0,045.2,0.130,766.5,01.15,0.508
2014-03-10 03:02:00,5911E-2,5C000490,-0724,1375,6083,025.0,045.2,0.131,766.5,01.15,0.508
2014-03-10 03:03:00,5908E-2,5C000490,-0724,1375,6099,025.0,045.2,0.130,766.5,01.15,0.508
2014-03-10 03:04:00,5995E-2,5C000490,-0724,1375,6157,025.0,045.2,0.130,766.5,01.15,0.508
2014-03-10 03:05:00,5935E-2,5C000490,-0724,1375,6114,025.0,045.2,0.130,766.5,01.15,0.508
2014-03-10 03:06:00,5986E-2,5C000490,-0724,1375,6091,025.0,045.2,0.130,766.5,01.15,0.508
2014-03-10 03:07:00,5924E-2,5C000490,-0724,1375,6015,025.0,045.2,0.130,766.5,01.15,0.508
2014-03-10 03:08:00,5928E-2,5C000490,-0724,1375,6118,025.0,045.2,0.130,766.5,01.15,0.508
2014-03-10 03:09:00,5967E-2,5C000490,-0724,1375,6183,025.1,045.2,0.130,766.5,01.15,0.508
2014-03-10 03:10:00,6008E-2,5C000490,-0724,1375,6066,025.1,045.2,0.130,766.4,01.15,0.508
2014-03-10 03:11:00,6027E-2,5C000490,-0724,1375,6067,025.1,045.2,0.130,766.5,01.15,0.508
2014-03-10 03:12:00,6030E-2,5C000490,-0724,1375,6056,025.1,045.2,0.130,766.5,01.15,0.508
2014-03-10 03:13:00,5969E-2,5C000490,-0724,1375,6097,025.1,045.2,0.130,766.5,01.15,0.508
2014-03-10 03:14:00,6024E-2,5C000490,-0724,1375,6053,025.1,045.2,0.130,766.5,01.15,0.508
2014-03-10 03:15:00,5966E-2,5C000490,-0724,1375,6046,025.1,045.2,0.130,766.5,01.15,0.508
2014-03-10 03:16:00,5961E-2,5C000490,-0724,1375,5980,025.1,045.2,0.130,766.5,01.15,0.508
2014-03-10 03:17:00,6026E-2,5C000490,-0724,1375,6064,025.1,045.2,0.130,766.5,01.15,0.508
2014-03-10 03:18:00,6002E-2,5C000490,-0724,1375,6154,025.1,045.2,0.130,766.6,01.15,0.508
2014-03-10 03:19:00,5978E-2,5C000490,-0724,1375,6099,025.1,045.2,0.130,766.5,01.15,0.508
2014-03-10 03:20:00,6071E-2,5C000490,-0724,1375,5904,025.1,045.2,0.130,766.5,01.15,0.508
2014-03-10 03:21:00,6063E-2,5C000490,-0724,1375,6002,025.1,045.2,0.130,766.5,01.15,0.508
2014-03-10 03:22:00,6076E-2,5C000490,-0724,1375,6005,025.2,045.2,0.130,766.5,01.15,0.508
2014-03-10 03:23:00,6063E-2,5C000490,-0724,1375,6019,025.2,045.2,0.130,766.4,01.15,0.508
2014-03-10 03:24:00,6054E-2,5C000490,-0724,1375,5978,025.2,045.2,0.130,766.5,01.15,0.508
2014-03-10 03:25:00,6103E-2,5C000490,-0724,1375,5899,025.2,045.2,0.130,766.5,01.15,0.508
2014-03-10 03:26:00,6042E-2,5C000490,-0724,1375,5947,025.2,045.2,0.130,766.4,01.15,0.508
2014-03-10 03:27:00,6099E-2,5C000490,-0724,1375,5868,025.2,045.2,0.130,766.4,01.15,0.508
2014-03-10 03:28:00,6112E-2,5C000490,-0724,1375,5958,025.2,045.2,0.130,766.5,01.15,0.508
2014-03-10 03:29:00,6081E-2,5C000490,-0724,1375,5939,025.2,045.2,0.130,766.4,01.15,0.508
2014-03-10 03:30:00,6128E-2,5C000490,-0724,1375,5964,025.2,045.2,0.130,766.5,01.15,0.508
2014-03-10 03:31:00,6135E-2,5C000490,-0724,1375,5994,025.2,045.2,0.130,766.4,01.15,0.508
2014-03-10 03:32:00,6114E-2,5C000490,-0724,1375,6020,025.2,045.2,0.130,766.4,01.15,0.508
2014-03-10 03:33:00,6082E-2,5C000490,-0724,1375,6018,025.2,045.2,0.130,766.4,01.15,0.508
2014-03-10 03:34:00,5965E-2,5C000490,-0724,1375,5975,025.2,045.2,0.129,766.4,01.15,0.508
2014-03-10 03:35:00,5940E-2,5C000490,-0724,1375,6008,025.2,045.2,0.129,766.4,01.15,0.508
2014-03-10 03:36:00,6012E-2,5C000490,-0724,1375,5910,025.3,045.2,0.129,766.4,01.15,0.508
2014-03-10 03:37:00,6051E-2,5C000490,-0724,1375,5981,025.3,045.2,0.130,766.4,01.15,0.508
2014-03-10 03:38:00,6088E-2,5C000490,-0724,1375,6004,025.3,045.2,0.130,766.4,01.15,0.508
2014-03-10 03:39:00,5935E-2,5C000490,-0724,1375,5931,025.3,045.2,0.129,766.4,01.15,0.508
2014-03-10 03:40:00,6017E-2,5C000490,-0724,1375,5960,025.3,045.2,0.129,766.5,01.15,0.508
2014-03-10 03:41:00,6025E-2,5C000490,-0724,1375,5903,025.3,045.2,0.129,766.5,01.15,0.508
2014-03-10 03:42:00,5990E-2,5C000490,-0724,1375,5891,025.3,045.2,0.129,766.4,01.15,0.508
2014-03-10 03:43:00,6030E-2,5C000490,-0724,1375,5897,025.3,045.2,0.129,766.4,01.15,0.508
2014-03-10 03:44:00,5953E-2,5C000490,-0724,1375,5968,025.3,045.2,0.129,766.4,01.15,0.508
2014-03-10 03:45:00,5964E-2,5C000490,-0724,1375,5887,025.3,045.2,0.129,766.5,01.15,0.508
2014-03-10 03:46:00,6014E-2,5C000490,-0724,1375,5931,025.3,045.2,0.129,766.5,01.15,0.508
2014-03-10 03:47:00,6043E-2,5C000490,-0724,1375,5945,025.3,045.2,0.129,766.5,01.15,0.508
2014-03-10 03:48:00,5928E-2,5C000490,-0724,1375,5890,025.3,045.2,0.129,766.5,01.15,0.508
2014-03-10 03:49:00,5973E-2,5C000490,-0724,1375,5869,025.4,045.2,0.129,766.5,01.15,0.508
2014-03-10 03:50:00,5998E-2,5C000490,-0724,1375,5822,025.4,045.2,0.129,766.5,01.15,0.508
2014-03-10 03:51:00,5943E-2,5C000490,-0724,1375,5924,025.4,045.2,0.129,766.4,01.15,0.508
2014-03-10 03:52:00,5910E-2,5C000490,-0724,1375,5905,025.4,045.2,0.129,766.4,01.15,0.508
2014-03-10 03:53:00,5949E-2,5C000490,-0724,1375,5795,025.4,045.2,0.129,766.5,01.15,0.508
2014-03-10 03:54:00,5984E-2,5C000490,-0724,1375,5912,025.4,045.2,0.129,766.5,01.15,0.508
2014-03-10 03:55:00,6007E-2,5C000490,-0724,1375,5939,025.4,045.2,0.129,766.4,01.15,0.508
2014-03-10 03:56:00,5916E-2,5C000490,-0724,1375,5839,025.4,045.2,0.129,766.4,01.15,0.508
2014-03-10 03:57:00,5965E-2,5C000490,-0724,1375,5819,025.4,045.2,0.129,766.4,01.15,0.508
2014-03-10 03:58:00,5970E-2,5C000490,-0724,1375,5852,025.4,045.2,0.129,766.4,01.15,0.508
2014-03-10 03:59:00,5996E-2,5C000490,-0724,1375,5845,025.5,045.2,0.129,766.4,01.15,0.508
2014-03-10 04:00:00,5948E-2,5C000490,-0724,1375,5773,025.5,045.2,0.129,766.4,01.15,0.508
2014-03-10 04:01:00,5957E-2,5C000490,-0724,1375,5771,025.5,045.2,0.129,766.4,01.15,0.508
2014-03-10 04:02:00,5960E-2,5C000490,-0724,1375,5856,025.5,045.2,0.129,766.4,01.15,0.508
2014-03-10 04:03:00,5980E-2,5C000490,-0724,1375,5840,025.5,045.2,0.129,766.4,01.15,0.508
2014-03-10 04:04:00,5985E-2,5C000490,-0724,1375,5830,025.5,045.2,0.129,766.3,01.15,0.508
2014-03-10 04:05:00,5980E-2,5C000490,-0724,1375,5726,025.5,045.2,0.129,766.3,01.15,0.508
2014-03-10 04:06:00,5948E-2,5C000490,-0724,1375,5843,025.5,045.2,0.128,766.4,01.15,0.508
2014-03-10 04:07:00,5948E-2,5C000490,-0724,1375,5771,025.5,045.2,0.128,766.3,01.15,0.508
2014-03-10 04:08:00,5977E-2,5C000490,-0724,1375,5717,025.5,045.2,0.128,766.3,01.15,0.508
2014-03-10 04:09:00,5966E-2,5C000490,-0724,1375,5794,025.5,045.2,0.128,766.3,01.15,0.508
2014-03-10 04:10:00,5976E-2,5C000490,-0724,1375,5775,025.6,045.2,0.128,766.3,01.15,0.508
2014-03-10 04:11:00,5969E-2,5C000490,-0724,1375,5799,025.6,045.2,0.128,766.3,01.15,0.508
2014-03-10 04:12:00,5960E-2,5C000490,-0724,1375,5808,025.6,045.2,0.128,766.2,01.15,0.508
2014-03-10 04:13:00,5943E-2,5C000490,-0724,1375,5764,025.6,045.2,0.128,766.2,01.15,0.508
2014-03-10 04:14:00,5921E-2,5C000490,-0724,1375,5744,025.6,045.2,0.128,766.2,01.15,0.508
2014-03-10 04:15:00,5961E-2,5C000490,-0724,1375,5738,025.6,045.2,0.128,766.2,01.15,0.508
2014-03-10 04:16:00,5941E-2,5C000490,-0724,1375,5762,025.6,045.2,0.128,766.3,01.15,0.508
2014-03-10 04:17:00,5923E-2,5C000490,-0724,1375,5832,025.6,045.2,0.128,766.2,01.15,0.508
2014-03-10 04:18:00,5983E-2,5C000490,-0724,1375,5866,025.6,045.2,0.128,766.2,01.15,0.508
2014-03-10 04:19:00,5911E-2,5C000490,-0724,1375,5730,025.6,045.2,0.128,766.1,01.15,0.508
2014-03-10 04:20:00,5969E-2,5C000490,-0724,1375,5790,025.6,045.2,0.128,766.1,01.15,0.508
2014-03-10 04:21:00,5910E-2,5C000490,-0724,1375,5749,025.6,045.2,0.128,766.1,01.15,0.508
2014-03-10 04:22:00,5952E-2,5C000490,-0724,1375,5876,025.6,045.2,0.128,766.2,01.15,0.508
2014-03-10 04:23:00,6000E-2,5C000490,-0724,1375,5727,025.6,045.2,0.128,766.2,01.15,0.508